This demonstration page uses our WeatherBlox Daily Observations layout. Learn more.

Left ArrowRight Arrow

39.51506, -84.39828

Hourly Observations for May 30, 2017

Temp ( °F °C ) Dew Point ( °F °C ) Humidity (%) Winds ( mph kmh ) Pressure ( in mb ) Visibility ( mi km ) Precip ( " mm )
12:15 am 00:15 Clear 63 17 54 12.3 74 74 SW 3 6 29.91 1013 10 16 N/A
12:35 am 00:35 Clear 61 16 54 12.3 79 79 WSW 3 6 29.91 1013 10 16 N/A
12:55 am 00:55 Clear 62 16.6 55 12.9 79 79 SSW 5 7 29.91 1013 10 16 N/A
1:15 am 01:15 Clear 62 16.6 55 12.9 79 79 SSW 3 6 29.91 1013 10 16 N/A
1:35 am 01:35 Partly Cloudy 67 19.2 55 12.8 67 67 WSW 3 6 29.91 1013 10 16 N/A
1:55 am 01:55 Partly Cloudy 67 19.5 54 12.3 63 63 WSW 5 7 29.94 1014 10 16 N/A
2:15 am 02:15 Clear 66 18.9 54 12 64 64 N N/A 29.94 1014 10 16 N/A
2:35 am 02:35 Mostly Cloudy 65 18.4 54 12 66 66 N N/A 29.94 1014 10 16 N/A
2:55 am 02:55 Partly Cloudy 62 16.6 55 12.7 78 78 N N/A 29.94 1014 10 16 N/A
3:15 am 03:15 Partly Cloudy 61 15.9 54 12.2 79 79 N N/A 29.94 1014 10 16 N/A
3:35 am 03:35 Clear 60 15.4 53 11.8 79 79 N N/A 29.94 1014 10 16 N/A
3:55 am 03:55 Clear 60 15.5 53 11.7 78 78 N N/A 29.94 1014 10 16 N/A
4:15 am 04:15 Clear 61 16 53 11.9 77 77 N N/A 29.94 1014 10 16 N/A
4:35 am 04:35 Partly Cloudy 60 15.3 54 12 81 81 N N/A 29.94 1014 10 16 N/A
4:55 am 04:55 Partly Cloudy 57 13.8 52 11 83 83 N N/A 29.97 1015 10 16 N/A
5:15 am 05:15 Clear 57 13.8 52 11 83 83 N N/A 30.00 1016 10 16 N/A
5:35 am 05:35 Clear 58 14.3 53 11.7 85 85 N N/A 30.00 1016 10 16 N/A
5:55 am 05:55 Clear 57 13.8 52 11 83 83 N N/A 30.00 1016 10 16 N/A
6:15 am 06:15 Sunny 56 13.5 51 10.7 83 83 N N/A 30.00 1016 10 16 N/A
6:35 am 06:35 Hazy 56 13.3 51 10.7 84 84 N N/A 30.03 1017 4 6 N/A
6:55 am 06:55 Sunny with Mist and Fog 56 13.5 52 11 85 85 N N/A 30.03 1017 2 3 N/A
7:15 am 07:15 Sunny 57 13.8 52 11.3 85 85 N N/A 30.03 1017 10 16 N/A
7:35 am 07:35 Sunny 60 15.8 55 12.9 83 83 S 3 6 30.00 1016 10 16 N/A
7:55 am 07:55 Sunny 62 16.9 55 12.9 77 77 SW 3 6 30.00 1016 10 16 N/A
8:15 am 08:15 Sunny 64 18 55 12.9 72 72 SSW 6 9 30.00 1016 10 16 N/A
8:35 am 08:35 Sunny 67 19.5 55 13 66 66 SSW 3 6 30.00 1016 10 16 N/A
8:55 am 08:55 Sunny 69 20.8 57 13.9 65 65 S 5 7 30.00 1016 10 16 N/A
9:15 am 09:15 Sunny 69 20.8 55 12.8 60 60 SSW 6 9 30.00 1016 10 16 N/A
9:35 am 09:35 Sunny 70 21 54 12.4 58 58 SW 5 7 30.00 1016 10 16 N/A
9:55 am 09:55 Sunny 74 23.5 57 14 55 55 SW 3 6 30.00 1016 10 16 N/A
10:15 am 10:15 Sunny 74 23.6 52 11.1 45 45 SSW 7 11 30.00 1016 10 16 N/A
10:35 am 10:35 Sunny 74 23.6 49 9.7 41 41 SSW 6 9 30.00 1016 10 16 N/A
10:55 am 10:55 Sunny 76 24.5 46 7.9 35 35 SSW 8 13 30.00 1016 10 16 N/A
11:15 am 11:15 Sunny 77 25.1 44 6.6 31 31 W 9 15 30.00 1016 10 16 N/A
11:35 am 11:35 Sunny 77 25.2 43 5.9 29 29 W 9 15 30.00 1016 10 16 N/A
11:55 am 11:55 Partly Cloudy 77 25.1 38 3.1 24 24 W 12 19 30.00 1016 10 16 N/A
12:15 pm 12:15 Sunny 77 25.1 43 6.3 30 30 W 13 20 30.00 1016 10 16 N/A
12:35 pm 12:35 Sunny 77 25.1 44 6.4 30 30 WSW 12 19 30.00 1016 10 16 N/A
12:55 pm 12:55 Partly Cloudy 78 25.6 40 4.4 26 26 WSW 16 26 30.00 1016 10 16 N/A
1:15 pm 13:15 Sunny 78 25.4 42 5.3 27 27 WSW 13 20 30.00 1016 10 16 N/A
1:35 pm 13:35 Partly Cloudy 78 25.4 42 5.5 28 28 WSW 10 17 30.00 1016 10 16 N/A
1:55 pm 13:55 Partly Cloudy 78 25.5 40 4.6 26 26 WSW 9 15 30.00 1016 10 16 N/A
2:15 pm 14:15 Partly Cloudy 80 26.5 43 6.3 28 28 SW 15 24 30.00 1016 10 16 N/A
2:35 pm 14:35 Partly Cloudy 79 26.2 40 4.7 25 25 WSW 10 17 30.00 1016 10 16 N/A
2:55 pm 14:55 Partly Cloudy 79 26.1 42 5.3 26 26 WSW 14 22 29.97 1015 10 16 N/A
3:15 pm 15:15 Partly Cloudy 80 26.5 39 3.9 23 23 WSW 13 20 29.97 1015 10 16 N/A
3:35 pm 15:35 Partly Cloudy 80 26.5 40 4.6 25 25 WSW 14 22 29.97 1015 10 16 N/A
3:55 pm 15:55 Partly Cloudy 80 26.5 41 5.2 26 26 WSW 14 22 29.97 1015 10 16 N/A
4:15 pm 16:15 Partly Cloudy 80 26.5 41 5.2 26 26 SW 15 24 29.97 1015 10 16 N/A
4:35 pm 16:35 Partly Cloudy 78 25.5 43 6.2 29 29 WSW 9 15 29.97 1015 10 16 N/A
4:55 pm 16:55 Mostly Cloudy 77 25.1 45 7 31 31 WSW 9 15 29.97 1015 10 16 N/A
5:15 pm 17:15 Mostly Cloudy 77 25.1 43 5.9 29 29 W 13 20 29.97 1015 10 16 N/A
5:35 pm 17:35 Partly Cloudy 77 25.1 41 4.8 27 27 W 12 19 29.97 1015 10 16 N/A
5:55 pm 17:55 Sunny 78 25.7 41 4.9 26 26 W 9 15 29.97 1015 10 16 N/A
6:15 pm 18:15 Sunny 77 25.1 37 2.9 24 24 W 14 22 29.97 1015 10 16 N/A
6:35 pm 18:35 Sunny 77 25.1 37 2.5 23 23 W 10 17 29.97 1015 10 16 N/A
6:55 pm 18:55 Sunny 77 25.1 37 2.5 23 23 W 9 15 29.97 1015 10 16 N/A
7:15 pm 19:15 Sunny 75 23.8 40 4.5 29 29 WNW 8 13 29.97 1015 10 16 N/A
7:35 pm 19:35 Sunny 76 24.5 39 3.7 26 26 W 10 17 29.97 1015 10 16 N/A
7:55 pm 19:55 Sunny 74 23.6 34 1.2 23 23 WNW 10 17 29.97 1015 10 16 N/A
8:15 pm 20:15 Sunny 74 23.6 37 2.6 25 25 W 8 13 29.97 1015 10 16 N/A
8:35 pm 20:35 Sunny 74 23.4 38 3.4 27 27 W 5 7 30.00 1016 10 16 N/A
8:55 pm 20:55 Sunny 69 20.8 38 3.6 32 32 WNW 3 6 30.00 1016 10 16 N/A
9:15 pm 21:15 Clear 69 20.8 44 6.7 40 40 N N/A 30.00 1016 10 16 N/A
9:35 pm 21:35 Clear 64 18 44 6.9 48 48 N N/A 30.00 1016 10 16 N/A
9:55 pm 21:55 Clear 62 16.6 47 8.2 58 58 N N/A 30.00 1016 10 16 N/A
10:15 pm 22:15 Clear 60 15.8 49 9.2 65 65 N N/A 30.00 1016 10 16 N/A
10:35 pm 22:35 Clear 61 15.9 47 8.3 61 61 N N/A 30.00 1016 10 16 N/A
10:55 pm 22:55 Clear 59 15.2 49 9.7 70 70 N N/A 30.03 1017 10 16 N/A
11:15 pm 23:15 Clear 57 13.8 49 9.6 76 76 N N/A 30.03 1017 10 16 N/A
11:35 pm 23:35 Clear 57 13.8 47 8.4 70 70 N N/A 30.03 1017 10 16 N/A
11:55 pm 23:55 Clear 55 12.9 48 8.9 77 77 N N/A 30.03 1017 10 16 N/A

Powered by AerisWeather